When you browse on this site, cookies collect data to enhance your experience and personalize the content and advertising you see.
Visit our Privacy Policy to learn more. By continuing to use the site, you agree to this use of cookies and data.
EN

Hourly Weather Kinshasa

Today, 14 July, Tuesday

Time Temperature Precipitation Wind Pressure Humidity
00:00 +22°C° 0.1 mm 1 mps 707 mmHg 96%
01:00 +21°C° 0 mm 1 mps 707 mmHg 95%
02:00 +21°C° 0 mm 1 mps 707 mmHg 95%
03:00 +21°C° 0 mm 1 mps 706 mmHg 94%
04:00 +21°C° 0 mm 1 mps 706 mmHg 94%
05:00 +21°C° 0.1 mm 1 mps 706 mmHg 93%
06:00 +21°C° 0.1 mm 1 mps 707 mmHg 93%
07:00 +22°C° 0 mm 1 mps 707 mmHg 92%
08:00 +23°C° 0.1 mm 1 mps 708 mmHg 88%
09:00 +25°C° 0.1 mm 2 mps 708 mmHg 84%
10:00 +26°C° 0.1 mm 2 mps 708 mmHg 80%
11:00 +26°C° 1 mm 2 mps 708 mmHg 83%
12:00 +26°C° 1 mm 1 mps 708 mmHg 86%
13:00 +27°C° 0 mm 1 mps 707 mmHg 87%
14:00 +26°C° 1.8 mm 1 mps 707 mmHg 89%
15:00 +24°C° 1.8 mm 0 mps 706 mmHg 91%
16:00 +24°C° 1.8 mm 0 mps 706 mmHg 93%
17:00 +23°C° 0.9 mm 0 mps 706 mmHg 94%
18:00 +22°C° 0.9 mm 0 mps 706 mmHg 94%
19:00 +23°C° 0.9 mm 1 mps 706 mmHg 95%
20:00 +23°C° 0.1 mm 1 mps 707 mmHg 95%
21:00 +22°C° 0.1 mm 1 mps 707 mmHg 96%
22:00 +22°C° 0.1 mm 1 mps 707 mmHg 97%
23:00 +22°C° 0 mm 1 mps 707 mmHg 97%

Tomorrow, 15 July, Wednesday

Time Temperature Precipitation Wind Pressure Humidity
00:00 +21°C° 0 mm 2 mps 707 mmHg 97%
01:00 +20°C° 0 mm 2 mps 707 mmHg 97%
02:00 +21°C° 0.2 mm 2 mps 707 mmHg 97%
03:00 +21°C° 0.2 mm 2 mps 707 mmHg 97%
04:00 +21°C° 0.2 mm 2 mps 707 mmHg 98%
05:00 +21°C° 0.2 mm 2 mps 707 mmHg 98%
06:00 +22°C° 0.2 mm 1 mps 708 mmHg 98%
07:00 +22°C° 0.2 mm 1 mps 708 mmHg 98%
08:00 +22°C° 0.4 mm 1 mps 709 mmHg 98%
09:00 +22°C° 0.4 mm 1 mps 709 mmHg 98%
10:00 +22°C° 0.4 mm 1 mps 709 mmHg 97%
11:00 +23°C° 0.2 mm 2 mps 709 mmHg 95%
12:00 +24°C° 0.2 mm 2 mps 708 mmHg 93%
13:00 +24°C° 0.2 mm 2 mps 708 mmHg 91%
14:00 +25°C° 0 mm 2 mps 707 mmHg 87%
15:00 +26°C° 0 mm 1 mps 707 mmHg 84%
16:00 +27°C° 0 mm 1 mps 707 mmHg 80%
17:00 +25°C° 0 mm 1 mps 707 mmHg 84%
18:00 +24°C° 0 mm 1 mps 707 mmHg 87%
19:00 +21°C° 0 mm 0 mps 707 mmHg 91%
20:00 +21°C° 0.1 mm 0 mps 708 mmHg 92%
21:00 +20°C° 0.1 mm 0 mps 708 mmHg 93%
22:00 +20°C° 0.1 mm 0 mps 709 mmHg 95%
23:00 +20°C° 0 mm 0 mps 709 mmHg 95%

Day after tomorrow, 16 July, Thursday

Time Temperature Precipitation Wind Pressure Humidity
00:00 +20°C° 0 mm 0 mps 708 mmHg 95%
01:00 +20°C° 0 mm 0 mps 708 mmHg 95%
02:00 +20°C° 0.6 mm 0 mps 708 mmHg 96%
03:00 +19°C° 0.6 mm 0 mps 708 mmHg 97%
04:00 +19°C° 0.6 mm 0 mps 708 mmHg 98%
05:00 +19°C° 0.3 mm 0 mps 708 mmHg 98%
06:00 +19°C° 0.3 mm 0 mps 709 mmHg 98%
07:00 +19°C° 0.3 mm 0 mps 709 mmHg 98%
08:00 +22°C° 0.1 mm 1 mps 710 mmHg 97%
09:00 +23°C° 0.1 mm 1 mps 710 mmHg 96%
10:00 +23°C° 0.1 mm 2 mps 710 mmHg 94%
11:00 +25°C° 0.5 mm 2 mps 710 mmHg 90%
12:00 +26°C° 0.5 mm 2 mps 709 mmHg 86%
13:00 +27°C° 0.5 mm 2 mps 709 mmHg 82%
14:00 +27°C° 0.4 mm 1 mps 708 mmHg 79%
15:00 +28°C° 0.4 mm 1 mps 707 mmHg 77%
16:00 +26°C° 0.4 mm 0 mps 707 mmHg 74%
17:00 +25°C° 0.1 mm 0 mps 707 mmHg 80%
18:00 +23°C° 0.1 mm 0 mps 707 mmHg 86%
19:00 +21°C° 0.1 mm 0 mps 707 mmHg 93%
20:00 +21°C° 0.1 mm 0 mps 708 mmHg 94%
21:00 +21°C° 0.1 mm 0 mps 708 mmHg 95%
22:00 +20°C° 0.1 mm 0 mps 709 mmHg 95%
23:00 +20°C° 0.4 mm 0 mps 709 mmHg 96%

17 July, Friday

Time Temperature Precipitation Wind Pressure Humidity
00:00 +22°C° 0.4 mm 1 mps 708 mmHg 96%
01:00 +22°C° 0.4 mm 1 mps 708 mmHg 97%
02:00 +22°C° 0.4 mm 1 mps 708 mmHg 97%
03:00 +22°C° 0.4 mm 1 mps 708 mmHg 97%
04:00 +21°C° 0.4 mm 1 mps 708 mmHg 98%
05:00 +20°C° 0 mm 0 mps 708 mmHg 98%
06:00 +20°C° 0 mm 0 mps 708 mmHg 98%
07:00 +20°C° 0 mm 0 mps 709 mmHg 98%
08:00 +23°C° 0 mm 1 mps 709 mmHg 94%
09:00 +24°C° 0 mm 1 mps 709 mmHg 91%
10:00 +25°C° 0 mm 2 mps 709 mmHg 87%
11:00 +25°C° 0.6 mm 2 mps 709 mmHg 87%
12:00 +26°C° 0.6 mm 1 mps 708 mmHg 88%
13:00 +26°C° 0.6 mm 1 mps 707 mmHg 88%
14:00 +26°C° 1.3 mm 1 mps 707 mmHg 88%
15:00 +26°C° 1.3 mm 1 mps 706 mmHg 89%
16:00 +27°C° 1.3 mm 2 mps 706 mmHg 90%
17:00 +26°C° 1.4 mm 1 mps 706 mmHg 91%
18:00 +25°C° 1.4 mm 1 mps 707 mmHg 93%
19:00 +22°C° 1.4 mm 0 mps 707 mmHg 95%
20:00 +23°C° 0.9 mm 1 mps 708 mmHg 95%
21:00 +23°C° 0.9 mm 1 mps 708 mmHg 96%
22:00 +22°C° 0.9 mm 1 mps 708 mmHg 96%
23:00 +22°C° 0.7 mm 1 mps 708 mmHg 97%

18 July, Saturday

Time Temperature Precipitation Wind Pressure Humidity
00:00 +21°C° 0.7 mm 2 mps 708 mmHg 97%
01:00 +21°C° 0.7 mm 2 mps 708 mmHg 98%
02:00 +20°C° 0.1 mm 2 mps 708 mmHg 98%
03:00 +21°C° 0.1 mm 1 mps 708 mmHg 98%
04:00 +21°C° 0.1 mm 1 mps 707 mmHg 98%
05:00 +21°C° 0.1 mm 1 mps 708 mmHg 98%
06:00 +21°C° 0.1 mm 1 mps 708 mmHg 98%
07:00 +21°C° 0.1 mm 1 mps 709 mmHg 98%
08:00 +22°C° 0.2 mm 1 mps 709 mmHg 97%
09:00 +22°C° 0.2 mm 1 mps 709 mmHg 97%
10:00 +23°C° 0.2 mm 1 mps 710 mmHg 96%
11:00 +23°C° 0.6 mm 2 mps 709 mmHg 95%
12:00 +23°C° 0.6 mm 2 mps 709 mmHg 95%
13:00 +24°C° 0.6 mm 2 mps 708 mmHg 94%
14:00 +24°C° 0.6 mm 2 mps 708 mmHg 94%
15:00 +24°C° 0.6 mm 2 mps 707 mmHg 94%
16:00 +24°C° 0.6 mm 2 mps 707 mmHg 94%
17:00 +23°C° 0.1 mm 2 mps 707 mmHg 95%
18:00 +23°C° 0.1 mm 1 mps 707 mmHg 96%
19:00 +22°C° 0.1 mm 1 mps 707 mmHg 97%
20:00 +22°C° 0 mm 1 mps 707 mmHg 97%
21:00 +22°C° 0 mm 1 mps 708 mmHg 97%
22:00 +22°C° 0 mm 1 mps 708 mmHg 97%
23:00 +22°C° 0.1 mm 1 mps 708 mmHg 98%

19 July, Sunday

Time Temperature Precipitation Wind Pressure Humidity
00:00 +21°C° 0.1 mm 1 mps 708 mmHg 98%
01:00 +21°C° 0.1 mm 1 mps 708 mmHg 98%
02:00 +21°C° 0.9 mm 1 mps 707 mmHg 98%
03:00 +21°C° 0.9 mm 1 mps 707 mmHg 98%
04:00 +21°C° 0.9 mm 1 mps 707 mmHg 99%
05:00 +21°C° 1 mm 1 mps 708 mmHg 99%
06:00 +21°C° 1 mm 1 mps 708 mmHg 99%
07:00 +21°C° 1 mm 1 mps 708 mmHg 99%
08:00 +22°C° 0.6 mm 1 mps 709 mmHg 98%
09:00 +22°C° 0.6 mm 1 mps 709 mmHg 98%
10:00 +22°C° 0.6 mm 1 mps 709 mmHg 98%
11:00 +23°C° 0.4 mm 1 mps 709 mmHg 95%
12:00 +24°C° 0.4 mm 2 mps 708 mmHg 92%
13:00 +24°C° 0.4 mm 2 mps 708 mmHg 90%
14:00 +25°C° 0.2 mm 2 mps 707 mmHg 86%
15:00 +26°C° 0.2 mm 1 mps 707 mmHg 83%
16:00 +27°C° 0.2 mm 1 mps 707 mmHg 79%
17:00 +25°C° 1 mm 1 mps 707 mmHg 84%
18:00 +24°C° 1 mm 1 mps 707 mmHg 90%
19:00 +22°C° 1 mm 1 mps 707 mmHg 95%
20:00 +22°C° 0.3 mm 1 mps 707 mmHg 96%
21:00 +22°C° 0.3 mm 1 mps 708 mmHg 96%
22:00 +22°C° 0.3 mm 1 mps 708 mmHg 97%
23:00 +22°C° 0.2 mm 1 mps 708 mmHg 97%
Show more